Location: Marse
(42.1502°N, 110.9866°W)
Time: 01:33:22
(UTC+00:00)

BEESAT - Pass Details

Date: 03 July 2022
Orbit: 700 x 706 km, 98.6° (Epoch: 16 August)

Event Time Altitude Azimuth Distance (km) Brightness Sun altitude
Rises 05:12:49 0° 356° (N) 3,104 ? -17.8°
Reaches altitude 10° 05:15:50 10° 336° (NNW) 2,182 ? -18.1°
Maximum altitude 05:18:44 16° 298° (WNW) 1,787 ? -18.4°
Drops below altitude 10° 05:21:38 10° 261° (W) 2,176 ? -18.6°
Sets 05:24:38 0° 240° (WSW) 3,090 ? -18.9°
